• In Portugal
  • List of Countries
  • For 7 days
  • Water Temperature
  • Satellite Maps
  • Weather Map
  • Weather Widgets
  • user-avatar
    Login

    Hourly Weather Maripasoula

    Today, 20 January, Saturday

    Time Temperature Precipitation Wind Pressure Humidity
    00:00 +23°C° 0 mm 1 mps 747 mmHg 99%
    01:00 +21°C° 0 mm 0 mps 747 mmHg 99%
    02:00 +21°C° 0 mm 0 mps 747 mmHg 99%
    03:00 +21°C° 0.2 mm 0 mps 747 mmHg 99%
    04:00 +21°C° 0.2 mm 0 mps 747 mmHg 99%
    05:00 +21°C° 0.2 mm 0 mps 747 mmHg 99%
    06:00 +23°C° 0 mm 1 mps 747 mmHg 98%
    07:00 +24°C° 0 mm 1 mps 748 mmHg 97%
    08:00 +23°C° 0 mm 0 mps 748 mmHg 95%
    09:00 +26°C° 0.1 mm 1 mps 748 mmHg 87%
    10:00 +28°C° 0.1 mm 1 mps 748 mmHg 78%
    11:00 +30°C° 0.1 mm 1 mps 748 mmHg 69%
    12:00 +30°C° 0.8 mm 1 mps 747 mmHg 75%
    13:00 +29°C° 0.8 mm 1 mps 746 mmHg 81%
    14:00 +29°C° 0.8 mm 1 mps 746 mmHg 86%
    15:00 +28°C° 0.5 mm 1 mps 745 mmHg 89%
    16:00 +28°C° 0.5 mm 1 mps 745 mmHg 91%
    17:00 +27°C° 0.5 mm 1 mps 745 mmHg 94%
    18:00 +26°C° 0.1 mm 1 mps 745 mmHg 95%
    19:00 +25°C° 0.1 mm 1 mps 746 mmHg 96%
    20:00 +24°C° 0.1 mm 1 mps 746 mmHg 97%
    21:00 +24°C° 0 mm 1 mps 747 mmHg 98%
    22:00 +23°C° 0 mm 1 mps 747 mmHg 98%
    23:00 +23°C° 0 mm 1 mps 747 mmHg 99%

    Tomorrow, 21 January, Sunday

    Time Temperature Precipitation Wind Pressure Humidity
    00:00 +23°C° 0 mm 1 mps 747 mmHg 99%
    01:00 +22°C° 0 mm 1 mps 746 mmHg 99%
    02:00 +20°C° 0 mm 0 mps 746 mmHg 99%
    03:00 +20°C° 0 mm 0 mps 746 mmHg 99%
    04:00 +20°C° 0 mm 0 mps 746 mmHg 99%
    05:00 +19°C° 0 mm 0 mps 746 mmHg 99%
    06:00 +22°C° 0 mm 1 mps 746 mmHg 97%
    07:00 +23°C° 0 mm 1 mps 747 mmHg 96%
    08:00 +24°C° 0 mm 1 mps 747 mmHg 94%
    09:00 +26°C° 0 mm 1 mps 747 mmHg 84%
    10:00 +28°C° 0 mm 1 mps 747 mmHg 74%
    11:00 +30°C° 0 mm 1 mps 747 mmHg 64%
    12:00 +30°C° 0 mm 1 mps 746 mmHg 63%
    13:00 +30°C° 0 mm 1 mps 745 mmHg 62%
    14:00 +31°C° 0 mm 1 mps 745 mmHg 60%
    15:00 +30°C° 0 mm 1 mps 744 mmHg 65%
    16:00 +29°C° 0 mm 1 mps 744 mmHg 69%
    17:00 +29°C° 0 mm 1 mps 744 mmHg 74%
    18:00 +27°C° 0 mm 1 mps 744 mmHg 79%
    19:00 +26°C° 0 mm 1 mps 745 mmHg 84%
    20:00 +25°C° 0 mm 1 mps 745 mmHg 89%
    21:00 +24°C° 0 mm 1 mps 745 mmHg 91%
    22:00 +24°C° 0 mm 1 mps 746 mmHg 93%
    23:00 +23°C° 0 mm 1 mps 746 mmHg 96%

    Day after tomorrow, 22 January, Monday

    Time Temperature Precipitation Wind Pressure Humidity
    00:00 +23°C° 0 mm 1 mps 746 mmHg 97%
    01:00 +23°C° 0 mm 1 mps 745 mmHg 98%
    02:00 +20°C° 0 mm 0 mps 745 mmHg 99%
    03:00 +20°C° 0 mm 0 mps 745 mmHg 99%
    04:00 +20°C° 0 mm 0 mps 745 mmHg 99%
    05:00 +20°C° 0 mm 0 mps 745 mmHg 99%
    06:00 +23°C° 0 mm 1 mps 745 mmHg 94%
    07:00 +25°C° 0 mm 1 mps 746 mmHg 89%
    08:00 +26°C° 0 mm 1 mps 747 mmHg 84%
    09:00 +27°C° 0.1 mm 1 mps 747 mmHg 78%
    10:00 +29°C° 0.1 mm 1 mps 747 mmHg 72%
    11:00 +31°C° 0.1 mm 2 mps 747 mmHg 66%
    12:00 +31°C° 0.5 mm 2 mps 746 mmHg 67%
    13:00 +31°C° 0.5 mm 1 mps 744 mmHg 69%
    14:00 +31°C° 0.5 mm 1 mps 743 mmHg 71%
    15:00 +30°C° 0.8 mm 1 mps 743 mmHg 79%
    16:00 +28°C° 0.8 mm 1 mps 743 mmHg 87%
    17:00 +27°C° 0.8 mm 1 mps 743 mmHg 95%
    18:00 +26°C° 0.3 mm 1 mps 744 mmHg 96%
    19:00 +25°C° 0.3 mm 1 mps 744 mmHg 97%
    20:00 +24°C° 0.3 mm 1 mps 745 mmHg 98%
    21:00 +24°C° 0 mm 1 mps 745 mmHg 98%
    22:00 +24°C° 0 mm 1 mps 745 mmHg 98%
    23:00 +24°C° 0 mm 1 mps 746 mmHg 99%

    23 January, Tuesday

    Time Temperature Precipitation Wind Pressure Humidity
    00:00 +23°C° 0 mm 1 mps 745 mmHg 99%
    01:00 +23°C° 0 mm 1 mps 745 mmHg 99%
    02:00 +21°C° 0 mm 0 mps 744 mmHg 99%
    03:00 +21°C° 0 mm 0 mps 745 mmHg 99%
    04:00 +21°C° 0 mm 0 mps 745 mmHg 99%
    05:00 +21°C° 0 mm 0 mps 745 mmHg 99%
    06:00 +24°C° 0 mm 1 mps 745 mmHg 98%
    07:00 +24°C° 0 mm 1 mps 746 mmHg 97%
    08:00 +25°C° 0 mm 1 mps 747 mmHg 96%
    09:00 +26°C° 0.1 mm 1 mps 746 mmHg 88%
    10:00 +28°C° 0.1 mm 1 mps 746 mmHg 80%
    11:00 +30°C° 0.1 mm 1 mps 746 mmHg 72%
    12:00 +29°C° 0.8 mm 1 mps 745 mmHg 77%
    13:00 +29°C° 0.8 mm 1 mps 744 mmHg 83%
    14:00 +28°C° 0.8 mm 2 mps 744 mmHg 89%
    15:00 +28°C° 0.6 mm 1 mps 744 mmHg 91%
    16:00 +27°C° 0.6 mm 1 mps 744 mmHg 94%
    17:00 +26°C° 0.6 mm 1 mps 744 mmHg 97%
    18:00 +26°C° 0.3 mm 1 mps 744 mmHg 97%
    19:00 +25°C° 0.3 mm 1 mps 745 mmHg 98%
    20:00 +24°C° 0.3 mm 1 mps 745 mmHg 99%
    21:00 +24°C° 0 mm 1 mps 746 mmHg 99%
    22:00 +24°C° 0 mm 1 mps 746 mmHg 99%
    23:00 +24°C° 0 mm 1 mps 746 mmHg 99%

    24 January, Wednesday

    Time Temperature Precipitation Wind Pressure Humidity
    00:00 +22°C° 0 mm 0 mps 746 mmHg 99%
    01:00 +22°C° 0 mm 0 mps 745 mmHg 99%
    02:00 +22°C° 0 mm 0 mps 745 mmHg 99%
    03:00 +22°C° 0 mm 0 mps 745 mmHg 99%
    04:00 +22°C° 0 mm 0 mps 745 mmHg 99%
    05:00 +22°C° 0 mm 0 mps 745 mmHg 99%
    06:00 +22°C° 0.1 mm 0 mps 746 mmHg 98%
    07:00 +25°C° 0.1 mm 1 mps 746 mmHg 97%
    08:00 +25°C° 0.1 mm 1 mps 747 mmHg 96%
    09:00 +27°C° 0.3 mm 1 mps 747 mmHg 89%
    10:00 +28°C° 0.3 mm 1 mps 747 mmHg 82%
    11:00 +30°C° 0.3 mm 1 mps 747 mmHg 75%
    12:00 +29°C° 1.1 mm 1 mps 746 mmHg 81%
    13:00 +29°C° 1.1 mm 1 mps 745 mmHg 87%
    14:00 +28°C° 1.1 mm 1 mps 744 mmHg 92%
    15:00 +28°C° 0.7 mm 1 mps 744 mmHg 93%
    16:00 +27°C° 0.7 mm 1 mps 744 mmHg 94%
    17:00 +27°C° 0.7 mm 1 mps 744 mmHg 95%
    18:00 +26°C° 1.2 mm 1 mps 744 mmHg 96%
    19:00 +25°C° 1.2 mm 1 mps 745 mmHg 97%
    20:00 +24°C° 1.2 mm 1 mps 745 mmHg 98%
    21:00 +24°C° 0 mm 1 mps 746 mmHg 99%
    22:00 +24°C° 0 mm 1 mps 746 mmHg 99%
    23:00 +24°C° 0 mm 1 mps 746 mmHg 99%

    25 January, Thursday

    Time Temperature Precipitation Wind Pressure Humidity
    00:00 +22°C° 0 mm 0 mps 746 mmHg 99%
    01:00 +22°C° 0 mm 0 mps 745 mmHg 99%
    02:00 +22°C° 0 mm 0 mps 745 mmHg 99%
    03:00 +22°C° 0 mm 0 mps 745 mmHg 99%
    04:00 +22°C° 0 mm 0 mps 745 mmHg 99%
    05:00 +22°C° 0 mm 0 mps 745 mmHg 99%
    06:00 +24°C° 0 mm 1 mps 746 mmHg 98%
    07:00 +25°C° 0 mm 1 mps 746 mmHg 97%
    08:00 +25°C° 0 mm 1 mps 747 mmHg 95%
    09:00 +26°C° 0.4 mm 1 mps 747 mmHg 92%
    10:00 +27°C° 0.4 mm 1 mps 747 mmHg 89%
    11:00 +28°C° 0.4 mm 1 mps 747 mmHg 86%
    12:00 +28°C° 0.9 mm 1 mps 746 mmHg 88%
    13:00 +28°C° 0.9 mm 1 mps 745 mmHg 91%
    14:00 +28°C° 0.9 mm 1 mps 744 mmHg 93%
    15:00 +27°C° 1 mm 1 mps 744 mmHg 94%
    16:00 +27°C° 1 mm 1 mps 744 mmHg 95%
    17:00 +26°C° 1 mm 1 mps 744 mmHg 97%
    18:00 +26°C° 0.9 mm 1 mps 744 mmHg 97%
    19:00 +25°C° 0.9 mm 1 mps 745 mmHg 98%
    20:00 +24°C° 0.9 mm 1 mps 745 mmHg 98%
    21:00 +24°C° 0.3 mm 1 mps 746 mmHg 99%
    22:00 +24°C° 0.3 mm 1 mps 746 mmHg 99%
    23:00 +24°C° 0.3 mm 1 mps 746 mmHg 99%
    Show more